RH
85 78 74 68 72 69 54 36 30 33 37 38 48 44 43 43 38 36 36 38 42 42 42 39 38 38 39
77 72 79 72 58 41 28 27 35 37 45 44 38 43 45 48 44 35 34 36 37 41 46 50 46 42 42
89 71 62 52 39 27 31 34 38 43 39 38 39 40 35 32 32 34 35 36 37 36 44 45 47 51 49
70 50 31 30 29 32 38 39 42 40 35 32 31 27 27 27 27 26 31 31 31 31 33 37 43 48 48
48 40 29 31 34 39 34 40 35 31 30 35 29 24 22 22 20 18 15 13 14 16 17 16 17 24 38
37 30 33 41 40 38 32 29 35 34 26 28 22 21 18 15 12 10 10 10 10 10 10 11 12 11 13
36 36 36 34 35 31 28 27 29 24 20 19 17 15 12 9 7 6 5 5 5 5 5 5 6 7 8
34 38 32 29 26 23 24 20 20 18 15 12 10 8 6 6 4 4 4 4 4 4 4 5 5 4 5
32 36 27 24 22 20 19 17 16 14 10 7 6 5 5 5 5 5 5 5 5 5 5 4 4 5 5
30 25 23 21 20 18 16 15 11 9 6 6 5 4 8 7 6 4 4 4 4 4 4 4 4 4 4
24 21 22 21 19 16 14 10 8 6 5 6 7 7 7 8 4 4 4 4 4 5 4 3 3 4 4
22 22 19 18 17 14 9 7 6 5 6 7 8 7 7 6 7 5 5 4 5 4 4 4 4 3 4
21 18 16 16 12 8 7 6 6 7 8 8 8 7 6 7 8 6 6 4 5 4 3 3 3 4 4
16 15 14 10 7 6 5 6 8 7 7 7 8 8 7 7 7 6 5 5 4 4 3 3 3 3 3
13 10 8 7 6 5 7 8 7 7 7 7 8 8 7 6 6 5 4 4 5 4 4 3 3 3 3
9 7 6 6 6 7 8 7 7 7 7 8 8 7 7 6 5 4 4 5 5 5 4 3 3 3 3
7 6 6 7 8 7 7 7 6 7 7 8 7 6 5 4 5 6 4 5 5 5 4 3 3 3 3
Wind_Speed
125 124 125 125 123 124 127 128 127 123 117 108 101 98 98 97 96 93 91 89 88 86 82 79 75 72 72
132 131 129 130 132 133 133 130 124 120 112 106 105 107 107 107 106 106 105 102 100 97 93 92 88 87 82
130 134 134 136 136 137 133 131 130 118 114 116 117 117 118 117 117 115 112 112 110 107 105 101 98 95 95
136 140 140 137 138 132 130 130 124 122 123 126 128 127 127 124 124 123 121 120 117 113 110 109 109 107 104
134 134 139 139 137 134 127 121 125 130 132 134 137 138 137 132 127 121 115 109 107 109 109 106 103 107 109
140 137 137 132 131 129 133 135 133 137 140 140 143 140 135 126 119 114 110 109 107 105 103 104 105 99 101
137 135 133 137 131 135 137 138 141 145 143 139 136 131 125 121 113 107 103 101 99 98 98 99 100 101 102
135 134 137 138 141 142 145 148 148 146 137 125 123 119 115 112 103 96 90 87 83 82 83 85 87 90 95
137 135 141 143 147 149 150 149 141 134 127 116 113 106 101 97 90 85 82 79 76 75 76 76 78 80 83
137 140 144 148 152 152 146 138 129 123 117 110 101 90 88 88 84 79 74 69 69 68 68 70 71 70 72
140 145 148 149 149 147 137 128 122 116 104 91 88 84 80 79 78 72 67 65 62 62 62 63 63 62 66
144 147 148 146 140 134 128 121 113 99 90 83 80 77 76 73 70 69 64 59 57 56 54 55 57 58 61
142 142 138 134 128 123 117 106 96 89 84 78 74 73 70 67 67 62 60 56 51 54 49 48 49 52 54
135 132 128 123 118 110 100 91 87 85 78 71 69 67 66 62 60 59 51 54 47 48 45 44 45 47 49
126 121 116 112 104 94 88 85 81 77 74 68 62 63 62 58 56 53 48 48 45 43 40 40 40 43 44
117 112 105 96 90 86 82 78 75 71 67 64 61 59 56 54 54 51 41 44 40 39 37 36 37 38 39
107 99 91 86 84 81 76 72 69 64 61 59 58 56 54 49 43 50 38 38 36 35 34 34 35 35 36
Wind_Direction
303 304 304 304 302 303 302 302 302 302 301 299 295 297 294 293 292 290 288 285 284 282 280 276 270 264 262
303 304 304 302 302 302 302 303 302 300 297 296 295 295 294 292 291 290 288 286 284 281 278 274 272 269 264
302 301 304 302 301 302 303 302 301 299 298 298 295 293 293 291 289 286 285 283 282 280 276 273 270 267 266
304 300 302 302 302 303 301 300 298 297 297 295 294 294 294 293 292 290 287 284 281 276 272 269 267 265 262
302 300 302 302 302 300 298 299 297 296 295 294 296 297 296 294 291 288 285 282 278 275 273 270 264 260 257
300 299 300 300 298 296 297 298 297 295 295 296 298 297 295 293 289 287 285 281 277 273 270 268 265 262 256
298 298 297 298 296 297 297 297 296 296 298 298 296 295 294 291 289 287 284 280 277 274 271 267 264 260 257
297 296 296 295 297 297 297 298 299 301 300 299 298 296 294 292 290 288 284 281 278 274 269 266 262 258 255
297 295 295 296 296 297 298 301 302 301 300 300 299 297 293 291 290 288 285 282 278 273 269 265 259 256 253
294 295 295 296 297 300 303 302 301 302 301 300 298 295 293 291 290 288 285 282 279 275 270 264 259 255 251
293 295 295 297 300 302 303 303 303 302 300 299 297 295 292 291 291 288 285 282 278 274 269 264 259 255 251
293 294 296 300 302 302 303 302 301 300 300 298 296 294 293 292 290 289 287 284 280 274 268 264 260 254 249
295 299 301 301 301 302 302 301 301 301 300 298 296 295 293 292 291 288 286 284 278 275 270 263 257 254 249
300 301 302 301 301 301 301 301 301 301 300 298 297 294 293 292 292 289 286 284 279 273 269 263 256 252 247
302 301 301 301 300 301 301 302 301 300 299 298 296 293 293 294 291 287 286 281 278 273 267 262 254 248 243
301 301 301 301 301 302 302 301 300 300 298 298 296 294 294 293 292 288 285 279 274 271 267 260 253 247 241
301 301 302 302 303 303 302 301 300 299 298 297 296 296 296 292 288 286 285 277 272 268 263 256 250 244 239